NOAA 16 DEB, 41196

Orbit data source: Space-Track

NOAA 16 DEB, 41196 is space debris in SSO originally from a launch on Thu, 21 Sep 2000 UTC launched from the Air Force Western Test Range (AFWTR). Debris objects in space refer to the collection of defunct objects orbiting the Earth. Examples of debris include non-operational satellites, rocket bodies, and fragments generated from explosions, collisions, or faulty payload assembly.

Loading next visibility...
Identifier
41196, 2000-055CZ
Orbit
SSO
Country
Flag of USUS
Related business
Manufacturer
Unknown
Mission
Spacecraft
Bus & Motor
Unknown
Mass
Unknown
Launch date (UTC)
2000-09-21 (25 years ago)
Launch vehicle
Unknown
Launch site
Air Force Western Test Range (AFWTR)
Object type
Payload
Rocket body
Debris
Shape & HBR
Unknown shape, 0.1 m
Radar Cross Section
Small (<0.1 m²)

Expand to show TLE details & history
Last TLE update: 16 hours ago

TLE from 16 hours ago
0 NOAA 16 DEB
1 41196U 00055CZ  25342.51527787  .00004703  00000-0  24967-2 0  9993
2 41196  98.7478   2.8909 0053862 123.7881 236.8438 14.13263034511208
Epoch: 2025-12-08T12:22Z
TLE epoch observation values (Epoch: 2025-12-08T12:22:00.007Z)
Latitude
-0.00003°
Longitude
99.87767°
Altitude
872.57 km
Speed
7.405 km/s
True Right ascension
00h 11m 33s
True Declination
0° 00' 00"
Sunlit
Object was in daylight at epoch
Visualization orbit readout
Latitude
Unknown
Longitude
Unknown
Altitude
Unknown
Speed
Unknown
Apparent Right ascension
Unknown
Apparent Declination
Unknown
Sunlit
N/A
Visualization observer readout
Local Sidereal Time
02:47:08
Azimuth
Unknown
Elevation
Unknown
Doppler factor
Unknown
Orbital elements
Apogee altitude
884.304 km
Perigee altitude
806.489 km
Semi-major axis
7,223.533 km
Eccentricity
0.00539
Inclination
98.7478°
RAAN
2.8909°
Arg. of periapsis
123.7881°
True anomaly
236.32898°
Mean anomaly
236.8438°
Eccentric anomaly
236.5862°
Mean motion
3.53524 °/min
Orbital period
101.83 mins
BSTAR
0.0024967
Loading maneuver chart data...
Computing Atmospheric mass density...
Loading historical data...
Loading historical data...
Loading historical data...
Loading historical data...
Loading historical data...
Loading historical data...
Loading historical data...

Documentation

Showing up to 5 results
|